• In Latvia
  • List of Countries
  • For 7 days
  • Water Temperature
  • Satellite Maps
  • Weather Map
  • Weather Widgets
  • user-avatar
    Login

    Hourly Weather Tirgul Vertiujeni

    Today, 19 October, Friday

    Time Temperature Precipitation Wind Pressure Humidity
    00:00 +14°C° 0 mm 0 mps 750 mmHg 50%
    01:00 +14°C° 0 mm 0 mps 750 mmHg 52%
    02:00 +13°C° 0 mm 0 mps 749 mmHg 53%
    03:00 +13°C° 0 mm 0 mps 749 mmHg 54%
    04:00 +13°C° 0 mm 0 mps 749 mmHg 55%
    05:00 +13°C° 0 mm 0 mps 749 mmHg 56%
    06:00 +13°C° 0 mm 0 mps 749 mmHg 55%
    07:00 +14°C° 0 mm 0 mps 749 mmHg 55%
    08:00 +14°C° 0 mm 0 mps 749 mmHg 54%
    09:00 +16°C° 0 mm 0 mps 749 mmHg 50%
    10:00 +17°C° 0 mm 0 mps 749 mmHg 45%
    11:00 +18°C° 0 mm 0 mps 749 mmHg 41%
    12:00 +21°C° 0 mm 1 mps 749 mmHg 40%
    13:00 +21°C° 0 mm 1 mps 749 mmHg 38%
    14:00 +22°C° 0 mm 1 mps 749 mmHg 37%
    15:00 +21°C° 0 mm 1 mps 749 mmHg 39%
    16:00 +20°C° 0 mm 1 mps 749 mmHg 41%
    17:00 +20°C° 0 mm 1 mps 749 mmHg 43%
    18:00 +19°C° 0 mm 1 mps 749 mmHg 44%
    19:00 +19°C° 0 mm 1 mps 749 mmHg 45%
    20:00 +18°C° 0 mm 1 mps 749 mmHg 46%
    21:00 +18°C° 0 mm 1 mps 749 mmHg 48%
    22:00 +16°C° 0 mm 1 mps 749 mmHg 49%
    23:00 +16°C° 0 mm 1 mps 749 mmHg 51%

    Tomorrow, 20 October, Saturday

    Time Temperature Precipitation Wind Pressure Humidity
    00:00 +16°C° 0 mm 2 mps 749 mmHg 53%
    01:00 +15°C° 0 mm 2 mps 749 mmHg 55%
    02:00 +15°C° 0 mm 2 mps 749 mmHg 58%
    03:00 +14°C° 0 mm 2 mps 749 mmHg 60%
    04:00 +14°C° 0 mm 2 mps 749 mmHg 63%
    05:00 +13°C° 0 mm 2 mps 750 mmHg 65%
    06:00 +13°C° 0 mm 2 mps 750 mmHg 66%
    07:00 +14°C° 0 mm 2 mps 750 mmHg 66%
    08:00 +13°C° 0 mm 3 mps 750 mmHg 66%
    09:00 +16°C° 0 mm 3 mps 750 mmHg 60%
    10:00 +17°C° 0 mm 3 mps 750 mmHg 55%
    11:00 +19°C° 0 mm 3 mps 750 mmHg 49%
    12:00 +20°C° 0 mm 4 mps 750 mmHg 47%
    13:00 +20°C° 0 mm 4 mps 750 mmHg 46%
    14:00 +21°C° 0 mm 4 mps 750 mmHg 44%
    15:00 +20°C° 0 mm 4 mps 750 mmHg 48%
    16:00 +19°C° 0 mm 3 mps 750 mmHg 51%
    17:00 +18°C° 0 mm 3 mps 750 mmHg 55%
    18:00 +18°C° 0 mm 3 mps 750 mmHg 58%
    19:00 +17°C° 0 mm 3 mps 750 mmHg 62%
    20:00 +16°C° 0 mm 3 mps 751 mmHg 66%
    21:00 +14°C° 0 mm 3 mps 751 mmHg 70%
    22:00 +14°C° 0 mm 3 mps 751 mmHg 74%
    23:00 +13°C° 0 mm 3 mps 751 mmHg 78%

    Day after tomorrow, 21 October, Sunday

    Time Temperature Precipitation Wind Pressure Humidity
    00:00 +13°C° 0 mm 3 mps 751 mmHg 79%
    01:00 +13°C° 0 mm 3 mps 751 mmHg 81%
    02:00 +12°C° 0 mm 3 mps 751 mmHg 82%
    03:00 +12°C° 0 mm 3 mps 750 mmHg 82%
    04:00 +12°C° 0 mm 3 mps 750 mmHg 81%
    05:00 +12°C° 0 mm 3 mps 750 mmHg 80%
    06:00 +12°C° 0 mm 4 mps 750 mmHg 78%
    07:00 +12°C° 0 mm 4 mps 750 mmHg 76%
    08:00 +12°C° 0 mm 4 mps 751 mmHg 75%
    09:00 +12°C° 0 mm 4 mps 751 mmHg 69%
    10:00 +13°C° 0 mm 4 mps 751 mmHg 64%
    11:00 +13°C° 0 mm 4 mps 751 mmHg 58%
    12:00 +13°C° 0 mm 4 mps 750 mmHg 55%
    13:00 +14°C° 0 mm 4 mps 750 mmHg 52%
    14:00 +14°C° 0 mm 4 mps 750 mmHg 49%
    15:00 +13°C° 0 mm 4 mps 750 mmHg 50%
    16:00 +13°C° 0 mm 4 mps 750 mmHg 51%
    17:00 +12°C° 0 mm 3 mps 750 mmHg 53%
    18:00 +12°C° 0 mm 3 mps 751 mmHg 55%
    19:00 +11°C° 0 mm 3 mps 751 mmHg 58%
    20:00 +11°C° 0 mm 3 mps 751 mmHg 60%
    21:00 +10°C° 0 mm 3 mps 751 mmHg 62%
    22:00 +10°C° 0 mm 3 mps 751 mmHg 64%
    23:00 +9°C° 0 mm 3 mps 751 mmHg 66%

    22 October, Monday

    Time Temperature Precipitation Wind Pressure Humidity
    00:00 +9°C° 0 mm 3 mps 751 mmHg 68%
    01:00 +8°C° 0 mm 3 mps 751 mmHg 69%
    02:00 +8°C° 0 mm 3 mps 752 mmHg 71%
    03:00 +7°C° 0 mm 3 mps 751 mmHg 73%
    04:00 +7°C° 0 mm 3 mps 751 mmHg 76%
    05:00 +7°C° 0 mm 3 mps 751 mmHg 78%
    06:00 +7°C° 0 mm 3 mps 752 mmHg 77%
    07:00 +8°C° 0 mm 3 mps 752 mmHg 77%
    08:00 +7°C° 0 mm 4 mps 752 mmHg 76%
    09:00 +10°C° 0 mm 4 mps 752 mmHg 70%
    10:00 +12°C° 0 mm 4 mps 752 mmHg 65%
    11:00 +13°C° 0 mm 4 mps 752 mmHg 59%
    12:00 +14°C° 0 mm 4 mps 751 mmHg 56%
    13:00 +15°C° 0 mm 4 mps 751 mmHg 54%
    14:00 +15°C° 0 mm 4 mps 750 mmHg 52%
    15:00 +15°C° 0 mm 4 mps 750 mmHg 54%
    16:00 +14°C° 0 mm 3 mps 750 mmHg 56%
    17:00 +13°C° 0 mm 3 mps 750 mmHg 59%
    18:00 +12°C° 0 mm 3 mps 750 mmHg 61%
    19:00 +11°C° 0 mm 3 mps 750 mmHg 64%
    20:00 +11°C° 0 mm 3 mps 750 mmHg 67%
    21:00 +10°C° 0 mm 3 mps 750 mmHg 68%
    22:00 +10°C° 0 mm 3 mps 750 mmHg 70%
    23:00 +9°C° 0 mm 3 mps 749 mmHg 71%

    23 October, Tuesday

    Time Temperature Precipitation Wind Pressure Humidity
    00:00 +9°C° 0 mm 2 mps 749 mmHg 72%
    01:00 +8°C° 0 mm 2 mps 749 mmHg 73%
    02:00 +8°C° 0 mm 2 mps 749 mmHg 74%
    03:00 +7°C° 0 mm 2 mps 748 mmHg 74%
    04:00 +7°C° 0 mm 2 mps 748 mmHg 75%
    05:00 +7°C° 0 mm 2 mps 748 mmHg 75%
    06:00 +7°C° 0 mm 2 mps 748 mmHg 73%
    07:00 +7°C° 0 mm 2 mps 748 mmHg 71%
    08:00 +8°C° 0 mm 3 mps 748 mmHg 69%
    09:00 +9°C° 0 mm 3 mps 748 mmHg 63%
    10:00 +11°C° 0 mm 3 mps 748 mmHg 56%
    11:00 +13°C° 0 mm 2 mps 748 mmHg 49%
    12:00 +14°C° 0 mm 2 mps 747 mmHg 48%
    13:00 +15°C° 0 mm 2 mps 747 mmHg 46%
    14:00 +15°C° 0 mm 2 mps 747 mmHg 44%
    15:00 +15°C° 0 mm 2 mps 747 mmHg 47%
    16:00 +14°C° 0 mm 2 mps 747 mmHg 50%
    17:00 +13°C° 0 mm 2 mps 747 mmHg 53%
    18:00 +12°C° 0 mm 2 mps 747 mmHg 56%
    19:00 +12°C° 0 mm 2 mps 747 mmHg 58%
    20:00 +10°C° 0 mm 2 mps 747 mmHg 61%
    21:00 +9°C° 0 mm 2 mps 747 mmHg 62%
    22:00 +9°C° 0 mm 2 mps 747 mmHg 63%
    23:00 +8°C° 0 mm 2 mps 747 mmHg 64%

    24 October, Wednesday

    Time Temperature Precipitation Wind Pressure Humidity
    00:00 +8°C° 0 mm 2 mps 747 mmHg 66%
    01:00 +7°C° 0 mm 2 mps 747 mmHg 69%
    02:00 +6°C° 0 mm 2 mps 746 mmHg 72%
    03:00 +6°C° 0 mm 2 mps 746 mmHg 75%
    04:00 +6°C° 0 mm 2 mps 746 mmHg 79%
    05:00 +5°C° 0 mm 2 mps 746 mmHg 83%
    06:00 +5°C° 0 mm 2 mps 745 mmHg 81%
    07:00 +5°C° 0 mm 2 mps 745 mmHg 79%
    08:00 +6°C° 0 mm 2 mps 745 mmHg 77%
    09:00 +7°C° 0 mm 3 mps 744 mmHg 67%
    10:00 +9°C° 0 mm 3 mps 743 mmHg 58%
    11:00 +11°C° 0 mm 4 mps 743 mmHg 49%
    12:00 +10°C° 0 mm 5 mps 741 mmHg 47%
    13:00 +12°C° 0 mm 5 mps 740 mmHg 45%
    14:00 +13°C° 0 mm 6 mps 739 mmHg 43%
    15:00 +13°C° 0 mm 6 mps 738 mmHg 42%
    16:00 +13°C° 0 mm 6 mps 737 mmHg 41%
    17:00 +13°C° 0 mm 5 mps 737 mmHg 40%
    18:00 +11°C° 0.2 mm 6 mps 736 mmHg 43%
    19:00 +11°C° 0.2 mm 7 mps 735 mmHg 47%
    20:00 +10°C° 0.2 mm 8 mps 734 mmHg 51%
    21:00 +10°C° 0.6 mm 8 mps 734 mmHg 56%
    22:00 +10°C° 0.6 mm 8 mps 734 mmHg 61%
    23:00 +10°C° 0.6 mm 8 mps 734 mmHg 66%
    Show more